Weather in Nikolskoye

Russia / Novgorod Oblast     57°43′47″N   33°00′05″E
temp.,
°C
wind,
m/s
gust,
m/s
humid.,
%
clouds,
%
prec.,
mm/h
press.,
hPa
HPBL,
m
22 may, sun
sun2200:00+4e312735 0.0 1009375
03:00+2e412700 0.0 1009368
06:00+2ene410792 0.0 1009354
09:00+6ne46495 0.0 10091140
12:00+9ne46330 0.0 10091632
15:00+11nne46315 0.0 10091888
18:00+11nne46332 0.0 10081812
21:00+5n22615 0.0 100924
23 may, mon
mon2300:00+1nne29685 0.0 1010170
03:00−1n22730 0.0 101137
06:00+1nnw28680 0.0 1012221
09:00+7nnw48421 0.0 10101023
12:00+12nnw68415 0.0 10091801
15:00+14nnw69349 0.0 10082147
18:00+13nnw5104998 0.0 10071913
21:00+8nnw41060100 0.0 1009584
24 may, tue
tue2400:00+4wnw31173100 0.0 1009257
03:00+3nw3109475 0.0 1009258
06:00+4nw31361100 0.0 1010566
09:00+8nnw5113396 0.0 1010902
12:00+11nnw6102788 0.0 10101416
15:00+13nnw6103293 0.0 10111824
18:00+9nne466691 0.0 1013896
21:00+6ne258171 0.0 1014367
25 may, wed
wed2500:00+2ne119346 0.0 101610
03:00+2ese0088100 0.0 101610
06:00+5n0176100 0.0 1017141
09:00+8n125899 0.0 1016841
12:00+13nw234957 0.0 10151297
15:00+15nnw244725 0.0 10141578
18:00+15nw34425 0.0 10131709
21:00+9w1172100 0.0 101210
26 may, thu
thu2600:00+6sse2274100 0.0 101213
03:00+5sse227738 0.0 101024
06:00+8se246747 0.0 100884
09:00+15se354646 0.0 1005551
12:00+15sse3657100 0.0 1002538
15:00+12ssw2592100 0.8 1001284
18:00+10wsw3799100 5.6 1000413
21:00+8wnw41099100 11.3 1001510